Temp
8 8 8 8 8 9 9 9 9 9 10 10 12 13 15 15 16 16 17 20 19 19 20 20 21 20 21 22 23 24 24 25 27 28 30 31 32 32 32 31 31 31 31 30 30
8 7 7 7 8 8 8 9 9 9 9 10 10 11 13 14 15 16 20 19 19 19 20 19 21 21 22 22 23 24 24 25 28 29 30 31 32 31 31 31 30 30 30 30 30
7 7 7 7 7 7 7 8 9 9 9 9 9 10 10 12 13 18 19 19 19 19 20 20 21 23 23 23 24 25 25 26 28 29 30 30 30 30 31 31 30 29 30 30 30
7 7 7 7 7 7 7 7 8 8 9 9 9 10 10 10 18 17 18 18 18 17 17 18 19 22 24 24 25 25 26 27 27 28 29 30 30 30 30 30 30 30 30 30 29
6 7 7 7 7 7 8 8 8 8 8 8 9 9 10 11 13 16 16 17 17 16 16 17 18 20 23 24 25 26 26 27 28 28 28 29 30 30 30 30 30 30 29 29 29
5 5 6 6 7 7 7 8 8 8 8 7 8 8 6 9 13 16 17 16 17 17 18 18 19 20 22 24 25 26 27 27 28 28 29 30 30 29 29 29 29 29 29 29 29
5 5 6 6 6 7 7 8 8 8 8 8 7 6 5 8 12 13 14 15 16 17 18 20 21 21 22 23 24 26 26 28 29 29 29 29 29 29 29 29 29 29 29 29 29
5 5 6 6 7 7 7 8 8 9 9 9 8 6 7 11 12 13 13 14 15 16 17 18 19 20 22 23 24 25 26 25 27 28 29 28 26 29 29 29 29 29 29 29 29
5 5 5 6 6 6 7 8 9 9 8 8 7 6 10 13 12 12 13 14 16 16 17 17 18 19 21 22 23 24 24 24 26 28 28 28 27 29 29 29 29 29 29 29 29
5 5 5 6 6 7 8 9 11 8 7 7 7 9 11 13 14 15 15 15 15 15 16 17 18 18 20 22 21 22 23 24 25 27 28 27 28 29 29 29 29 29 29 29 28
5 6 6 6 6 7 8 8 11 11 9 11 13 12 13 14 15 15 15 15 15 16 16 18 18 18 19 21 23 24 24 24 26 28 27 27 27 28 29 29 30 29 29 28 28
6 6 6 6 7 7 7 8 10 9 10 10 11 11 12 13 14 14 15 15 16 16 17 18 18 20 21 22 22 23 23 24 26 28 27 27 28 29 29 29 30 29 29 28 28
6 6 7 7 7 7 7 9 9 9 10 10 11 12 13 14 14 15 15 15 16 16 17 17 19 20 21 21 22 23 23 24 24 26 27 27 26 27 29 29 29 29 29 28 28
6 7 7 7 7 7 9 9 9 9 9 14 15 15 14 15 16 15 15 15 16 15 17 18 19 20 21 20 22 22 24 24 24 24 24 26 24 26 28 28 29 29 28 28 28
6 7 7 6 7 8 8 8 8 8 8 16 14 14 14 15 16 16 15 16 15 16 16 16 18 19 19 21 22 23 24 24 25 24 24 25 24 25 27 27 28 29 29 29 28
6 6 6 7 7 7 8 8 7 6 7 11 12 12 13 13 13 13 16 16 16 16 17 17 18 19 20 22 22 24 23 23 24 25 23 25 24 25 26 27 28 29 29 29 28
6 6 6 6 7 6 7 8 6 6 10 11 13 14 14 14 14 14 15 15 14 12 15 17 17 19 20 20 22 22 22 21 21 22 22 25 25 25 27 28 29 29 29 29 28
7 6 6 7 7 6 7 7 6 6 11 14 13 14 13 14 15 16 14 14 16 15 14 12 13 18 19 19 20 21 22 22 19 21 23 25 24 26 28 29 29 29 29 28 28
7 7 7 8 7 6 7 7 5 9 12 12 13 10 10 11 11 14 14 14 16 15 12 12 13 18 18 20 21 21 21 23 23 24 24 26 27 27 28 29 29 29 29 28 25
7 6 9 7 6 6 7 8 10 13 13 13 10 10 9 11 11 11 11 12 13 14 13 12 11 15 17 20 20 21 23 21 23 21 22 25 26 28 28 28 29 29 28 26 24
8 10 9 7 7 8 6 9 12 12 12 12 11 10 9 10 11 10 11 11 13 14 14 13 12 13 15 18 19 21 21 23 24 24 23 23 26 30 28 29 29 28 28 26 24
7 11 9 8 8 7 8 10 11 12 13 13 12 11 10 9 10 11 12 11 12 13 11 13 10 12 14 18 20 22 21 22 22 22 24 25 26 29 29 29 30 29 28 26 24
8 11 9 8 7 8 9 10 11 12 12 11 12 12 11 10 6 5 7 8 10 10 10 9 11 11 13 16 18 17 22 23 23 24 23 24 26 29 29 29 30 29 28 25 24
7 9 10 9 10 8 9 9 9 10 11 11 11 12 10 8 11 10 6 8 10 9 9 8 8 10 11 14 11 14 19 23 23 23 24 26 26 27 28 29 29 28 26 25 25
8 9 9 8 8 9 9 9 9 10 10 10 10 11 10 9 11 10 10 10 10 8 9 6 6 9 11 12 9 10 14 21 23 24 23 25 27 28 28 28 27 27 26 25 24
7 7 7 6 9 10 8 9 8 10 9 9 8 9 10 9 9 9 10 11 10 10 6 6 7 9 10 13 10 8 13 18 24 25 25 25 27 28 27 27 26 26 26 25 24
4 4 5 5 9 9 8 7 8 8 9 9 9 7 9 9 9 9 9 10 11 11 10 9 7 8 11 13 10 11 16 18 24 26 26 25 26 27 26 28 27 26 26 25 25
Height
1517 1515 1513 1511 1509 1507 1505 1502 1500 1500 1500 1497 1496 1494 1493 1490 1490 1490 1485 1490 1492 1494 1498 1499 1497 1499 1502 1502 1502 1502 1503 1495 1484 1476 1467 1461 1461 1459 1463 1461 1462 1467 1467 1471 1473
1517 1514 1511 1509 1507 1505 1503 1502 1500 1496 1493 1492 1491 1491 1489 1486 1485 1480 1481 1482 1487 1491 1492 1494 1495 1498 1497 1497 1498 1497 1493 1483 1474 1467 1462 1459 1458 1460 1463 1463 1465 1465 1467 1468 1468
1514 1512 1510 1507 1505 1502 1500 1499 1496 1494 1492 1489 1489 1489 1487 1485 1484 1474 1471 1474 1479 1484 1487 1492 1493 1492 1491 1490 1489 1487 1480 1477 1471 1467 1462 1459 1458 1459 1459 1461 1462 1464 1465 1464 1465
1513 1510 1508 1505 1502 1500 1497 1494 1492 1490 1489 1487 1487 1484 1483 1484 1481 1468 1470 1470 1473 1479 1483 1485 1487 1485 1482 1480 1482 1480 1472 1473 1469 1466 1463 1459 1458 1457 1457 1456 1458 1459 1458 1460 1460
1512 1509 1507 1504 1500 1497 1495 1492 1489 1487 1485 1484 1483 1480 1481 1479 1470 1471 1469 1471 1473 1475 1476 1479 1480 1480 1472 1474 1476 1466 1466 1467 1463 1462 1459 1458 1454 1454 1452 1454 1453 1453 1454 1455 1456
1511 1508 1505 1502 1499 1496 1493 1490 1488 1485 1483 1480 1478 1478 1479 1472 1466 1468 1469 1470 1472 1473 1473 1473 1473 1475 1470 1466 1465 1463 1462 1458 1456 1454 1452 1450 1446 1451 1449 1450 1449 1449 1449 1450 1450
1511 1508 1505 1501 1498 1494 1491 1487 1484 1482 1479 1476 1474 1475 1473 1460 1461 1460 1462 1464 1467 1469 1468 1467 1469 1470 1467 1461 1460 1459 1455 1449 1443 1447 1442 1447 1438 1439 1443 1445 1443 1444 1443 1442 1443
1511 1508 1504 1501 1497 1493 1489 1485 1481 1478 1475 1474 1472 1472 1462 1456 1455 1456 1459 1458 1461 1462 1463 1465 1465 1462 1459 1460 1458 1452 1452 1445 1436 1442 1434 1447 1438 1433 1438 1436 1436 1437 1435 1434 1434
1510 1506 1502 1497 1493 1489 1484 1480 1476 1474 1472 1470 1469 1469 1458 1450 1449 1448 1451 1452 1454 1456 1458 1461 1463 1461 1459 1453 1454 1445 1444 1441 1432 1432 1434 1435 1433 1425 1431 1431 1427 1428 1430 1428 1427
1508 1504 1500 1496 1491 1486 1480 1474 1470 1469 1468 1469 1468 1470 1452 1449 1446 1447 1449 1449 1450 1452 1453 1454 1457 1457 1455 1445 1438 1439 1442 1426 1428 1426 1424 1425 1423 1415 1419 1420 1417 1417 1418 1420 1421
1507 1503 1498 1493 1488 1484 1478 1472 1471 1467 1468 1462 1455 1451 1442 1447 1447 1446 1446 1447 1447 1447 1443 1445 1451 1439 1416 1426 1424 1430 1425 1423 1417 1414 1420 1420 1418 1407 1410 1410 1408 1408 1409 1411 1415
1506 1501 1495 1491 1487 1483 1480 1478 1476 1475 1461 1457 1449 1441 1442 1444 1441 1441 1445 1445 1443 1439 1438 1441 1427 1403 1435 1429 1430 1427 1422 1418 1412 1410 1412 1409 1406 1399 1399 1399 1401 1400 1401 1404 1408
1504 1499 1493 1488 1484 1483 1481 1479 1476 1472 1463 1443 1430 1433 1432 1436 1430 1432 1438 1438 1436 1433 1430 1429 1403 1429 1425 1425 1423 1416 1415 1418 1416 1415 1407 1407 1407 1397 1391 1392 1393 1393 1396 1398 1401
1503 1497 1491 1486 1486 1482 1481 1479 1475 1472 1462 1421 1418 1419 1423 1424 1422 1423 1425 1430 1429 1428 1428 1420 1417 1415 1415 1415 1411 1411 1406 1414 1413 1419 1416 1409 1416 1390 1389 1386 1384 1386 1388 1389 1391
1501 1496 1491 1486 1486 1484 1483 1479 1475 1474 1453 1417 1424 1425 1427 1424 1419 1416 1420 1421 1422 1422 1429 1408 1410 1410 1410 1394 1409 1391 1411 1406 1405 1407 1410 1410 1412 1366 1383 1382 1379 1379 1379 1380 1382
1500 1495 1492 1490 1485 1485 1481 1478 1477 1475 1458 1439 1436 1434 1430 1426 1424 1424 1415 1416 1416 1417 1415 1406 1408 1405 1398 1399 1401 1399 1404 1405 1401 1400 1411 1393 1405 1372 1384 1377 1373 1371 1370 1370 1372
1499 1496 1492 1489 1489 1484 1481 1478 1476 1468 1449 1441 1430 1425 1423 1424 1420 1422 1412 1411 1418 1424 1411 1402 1404 1400 1399 1397 1394 1397 1401 1415 1420 1409 1397 1387 1392 1373 1370 1366 1365 1362 1362 1362 1366
1498 1495 1492 1490 1489 1485 1482 1482 1475 1472 1444 1436 1433 1427 1424 1419 1414 1408 1414 1414 1406 1408 1414 1417 1412 1392 1391 1388 1389 1389 1390 1394 1413 1401 1391 1380 1384 1366 1353 1355 1354 1356 1355 1358 1362
1496 1493 1492 1492 1488 1486 1484 1477 1482 1461 1447 1441 1435 1441 1439 1433 1429 1412 1410 1409 1404 1410 1421 1416 1403 1385 1390 1386 1385 1381 1387 1373 1384 1374 1382 1362 1354 1345 1344 1345 1346 1351 1355 1359 1365
1495 1493 1492 1491 1488 1487 1485 1473 1460 1451 1447 1443 1444 1447 1443 1429 1429 1429 1421 1423 1415 1413 1418 1415 1416 1395 1383 1376 1375 1372 1368 1383 1374 1395 1390 1370 1361 1345 1337 1340 1339 1345 1352 1359 1366
1494 1489 1488 1489 1489 1487 1483 1470 1456 1451 1448 1447 1444 1445 1445 1436 1429 1427 1423 1423 1414 1411 1412 1413 1416 1393 1389 1368 1372 1371 1365 1363 1366 1367 1378 1380 1356 1320 1328 1329 1334 1341 1349 1358 1366
1496 1488 1486 1487 1490 1485 1478 1469 1461 1453 1445 1443 1443 1441 1442 1442 1431 1420 1416 1418 1417 1416 1415 1412 1413 1396 1388 1368 1365 1361 1359 1359 1363 1372 1362 1363 1354 1321 1322 1326 1330 1336 1344 1355 1365
1497 1488 1485 1485 1485 1481 1478 1469 1459 1453 1447 1447 1440 1437 1439 1438 1443 1441 1433 1428 1422 1421 1418 1421 1406 1398 1389 1378 1362 1366 1351 1351 1354 1355 1364 1366 1353 1322 1325 1327 1329 1334 1344 1355 1365
1498 1492 1487 1485 1482 1482 1476 1471 1464 1459 1454 1447 1442 1436 1438 1440 1424 1422 1434 1426 1420 1420 1420 1424 1418 1405 1393 1378 1395 1375 1357 1346 1350 1357 1354 1347 1342 1332 1329 1326 1330 1335 1346 1356 1365
1501 1495 1489 1485 1481 1479 1476 1470 1463 1455 1453 1450 1446 1437 1434 1430 1419 1418 1419 1417 1416 1419 1416 1423 1419 1407 1393 1392 1404 1401 1378 1345 1339 1338 1352 1340 1334 1331 1330 1329 1336 1343 1349 1358 1365
1505 1502 1495 1491 1480 1473 1473 1467 1463 1456 1456 1449 1447 1442 1435 1432 1427 1419 1416 1412 1411 1413 1420 1419 1412 1398 1388 1380 1395 1400 1374 1348 1327 1332 1338 1336 1326 1325 1327 1335 1342 1348 1351 1358 1365
1507 1505 1501 1490 1477 1472 1473 1470 1466 1462 1453 1449 1444 1444 1435 1430 1426 1418 1415 1412 1407 1403 1404 1409 1407 1399 1380 1377 1394 1384 1352 1343 1320 1319 1325 1338 1327 1325 1337 1338 1341 1345 1352 1359 1365
Wind_Speed
15 16 17 17 17 17 18 19 18 17 15 14 16 20 25 26 28 23 28 27 13 21 18 8 10 13 17 22 22 21 14 16 23 22 19 20 17 20 17 5 12 3 7 7 14
15 17 18 18 18 18 18 18 19 19 19 18 16 14 16 23 26 32 33 29 25 22 21 19 21 17 24 21 26 21 16 26 22 21 18 22 21 13 17 12 15 18 16 19 19
16 17 17 19 20 21 21 20 19 19 19 19 18 16 13 10 19 21 25 28 27 27 26 19 22 24 27 29 30 28 24 25 26 31 31 25 26 24 26 18 17 25 25 21 20
16 17 17 18 19 21 22 23 22 21 20 19 19 18 13 7 8 1 6 6 22 27 22 22 24 30 27 26 33 27 36 34 35 34 35 26 34 31 33 31 27 35 28 25 20
18 18 18 18 19 20 20 21 21 22 22 21 20 19 18 13 21 16 16 15 8 18 23 28 31 29 29 28 31 31 28 37 39 36 37 38 32 30 37 37 38 35 33 32 30
20 20 21 22 22 21 20 19 19 20 22 23 23 20 15 24 13 15 18 16 16 17 23 23 30 32 32 33 31 36 36 38 40 39 39 33 30 34 37 34 36 34 35 37 35
19 20 21 22 24 24 24 23 21 21 20 21 22 21 22 31 18 16 15 15 20 21 22 21 23 30 36 31 40 40 33 32 32 36 33 35 32 28 36 38 38 38 38 36 32
18 19 21 22 22 22 22 22 21 21 22 18 19 15 20 17 19 21 22 24 25 25 26 23 22 26 31 38 39 32 32 30 29 29 37 30 31 26 37 33 30 34 34 34 37
23 24 25 26 26 27 26 24 19 15 17 16 14 11 18 11 12 16 16 25 24 25 26 24 25 25 21 21 22 29 23 33 33 29 30 29 31 28 38 37 35 31 33 33 33
25 26 26 26 26 27 29 24 16 19 12 8 12 12 21 13 14 4 6 7 17 22 23 27 22 19 18 19 24 23 30 34 29 26 27 30 29 28 34 35 34 30 31 27 32
28 28 28 28 28 28 21 21 22 7 5 20 18 16 27 13 6 10 9 12 11 16 20 26 17 25 42 31 30 26 32 33 29 25 27 25 26 29 23 27 27 33 27 27 31
29 30 29 27 26 14 12 15 17 14 23 24 35 41 38 34 35 32 21 21 17 17 19 20 28 37 23 29 30 33 33 31 28 26 23 23 25 24 23 20 29 28 26 22 25
30 31 31 29 20 9 14 14 18 17 20 40 47 41 35 29 33 31 26 28 22 21 20 23 36 25 28 28 31 32 33 26 30 24 27 24 25 25 24 26 31 27 26 25 25
29 30 23 20 7 14 11 16 17 17 9 11 9 5 14 15 21 24 25 29 25 26 22 24 25 31 29 33 31 28 28 28 27 22 21 20 20 25 19 22 21 22 28 30 30
29 25 13 19 16 11 17 17 16 9 6 12 16 8 13 10 9 9 10 19 24 22 20 33 24 26 30 36 28 34 22 26 27 25 21 24 15 27 16 19 15 16 23 25 23
28 18 17 12 17 15 18 14 12 4 5 11 6 8 12 17 21 17 10 12 15 21 20 28 32 27 27 28 32 26 29 27 25 19 18 25 21 25 18 18 17 18 27 27 22
24 12 15 10 17 18 13 11 5 4 18 7 19 18 17 14 15 15 14 9 7 8 18 24 26 29 28 29 28 31 22 16 18 17 22 19 22 21 21 19 19 21 24 18 14
14 10 10 7 16 13 11 4 4 9 17 21 18 21 19 20 17 19 7 10 19 16 14 15 19 27 26 31 27 29 26 15 24 17 19 23 22 20 22 19 18 12 5 11 3
16 11 7 9 11 10 11 2 3 12 17 19 21 17 16 16 15 20 13 17 13 11 7 8 12 21 22 29 29 28 28 29 23 21 16 17 20 31 24 18 13 7 11 11 21
14 9 8 9 11 9 6 9 9 14 13 17 17 14 21 24 6 11 11 6 12 5 1 7 16 20 29 26 32 31 20 26 18 25 22 20 23 14 17 19 16 12 11 20 25
10 6 2 8 8 6 4 10 19 21 15 15 16 15 18 20 18 13 8 15 8 8 5 11 11 23 23 21 28 23 25 22 21 17 16 14 13 7 14 9 4 13 19 24 24
8 5 2 7 6 6 6 20 28 23 18 14 11 13 10 19 21 20 18 7 1 7 12 14 7 17 25 25 15 29 25 23 15 25 17 14 16 8 4 5 6 13 24 29 26
9 15 1 2 4 9 16 17 21 17 16 19 13 16 12 13 7 6 4 14 7 5 3 7 6 11 18 20 22 18 28 25 19 12 20 17 15 7 7 8 10 16 26 28 27
8 4 11 14 9 11 15 16 17 23 15 22 20 19 5 12 19 5 5 10 8 8 10 3 6 15 11 13 13 10 20 31 25 17 17 19 4 6 8 9 12 22 28 27 27
6 4 11 7 11 13 14 16 18 17 19 24 12 17 21 22 19 14 14 11 7 5 5 3 5 14 19 19 15 19 29 27 31 23 22 21 19 7 13 14 13 15 23 25 27
9 9 12 21 16 15 13 13 19 21 19 16 15 20 20 19 19 21 18 16 9 4 0 4 4 15 20 16 8 21 32 25 29 27 27 25 16 13 14 22 15 15 22 23 26
9 10 8 12 12 11 8 13 18 21 13 23 20 18 18 16 23 29 27 28 23 18 14 7 3 6 6 10 3 15 23 23 22 24 27 16 11 18 13 9 12 20 22 22 25
Wind_Direction
334 333 333 333 331 329 328 330 330 327 323 318 303 291 284 283 279 275 264 257 248 245 241 238 222 229 221 232 232 233 251 253 253 259 267 274 287 287 277 251 279 242 247 271 283
331 330 331 330 328 326 324 323 322 325 326 324 326 320 301 289 285 277 267 261 242 228 231 228 228 225 224 230 231 225 241 244 249 263 273 278 280 291 283 270 285 291 269 264 277
334 329 326 326 326 325 323 321 321 319 318 319 319 321 324 322 304 274 256 257 247 235 235 233 239 234 230 233 230 227 236 246 255 255 266 288 294 298 294 264 239 223 276 287 295
338 333 331 329 328 326 324 322 321 318 314 311 310 312 315 312 254 116 9 254 226 225 224 233 241 243 235 232 238 241 242 244 256 260 271 276 281 287 289 291 279 277 284 279 286
345 342 338 335 332 329 326 323 320 315 310 306 304 308 309 255 246 280 303 297 269 227 232 233 232 232 238 234 240 241 242 248 252 252 258 269 271 279 280 278 286 287 287 289 282
344 342 341 339 335 333 329 324 317 312 307 304 301 300 288 267 267 264 267 250 248 236 237 231 235 235 247 240 240 244 247 250 252 257 260 261 268 274 272 277 277 272 270 269 271
343 341 339 338 336 334 330 326 321 315 305 296 294 290 268 254 262 253 254 255 247 244 244 242 242 235 242 249 249 253 257 259 256 260 264 276 273 261 265 267 268 274 276 273 275
346 340 336 335 333 329 322 317 313 311 305 294 283 276 262 267 260 263 260 259 251 247 246 247 254 272 254 254 259 249 255 259 254 255 258 261 265 267 271 271 270 275 275 269 266
348 344 341 339 337 335 327 320 308 298 299 300 277 230 277 289 260 261 250 249 247 246 243 243 246 255 266 249 246 245 246 249 250 247 262 254 263 262 260 262 260 259 267 275 280
343 339 336 335 334 334 327 328 326 291 290 273 257 253 252 280 261 221 268 251 234 241 243 229 230 239 241 236 226 221 235 241 255 250 250 246 251 258 257 256 259 262 250 263 275
344 338 332 331 332 336 336 358 349 280 249 263 276 222 287 287 247 240 276 263 246 244 233 226 216 222 220 220 239 235 238 247 252 247 248 253 258 266 271 271 267 246 253 258 267
343 338 332 329 331 339 344 325 328 308 298 280 265 262 260 269 270 262 259 251 246 241 231 227 220 227 234 230 236 243 252 253 261 258 262 262 264 262 255 255 260 261 265 257 274
343 339 333 329 333 355 318 322 326 316 292 281 265 261 261 251 251 253 244 243 243 249 235 224 237 229 239 232 238 237 240 247 258 268 269 270 268 267 265 269 275 269 277 273 272
341 341 343 353 356 324 329 332 328 327 292 288 218 219 228 249 255 250 242 233 239 239 248 249 243 242 230 238 231 240 235 245 252 252 256 256 268 255 262 266 260 252 249 252 250
343 345 357 353 356 341 330 324 322 321 275 34 32 33 346 318 272 181 226 226 234 240 231 244 249 237 238 238 231 246 240 248 249 249 260 255 260 264 268 268 269 273 266 262 261
341 343 359 3 321 322 324 322 319 256 237 8 17 308 344 341 322 313 223 211 235 237 247 253 252 255 252 241 247 243 243 252 257 257 248 240 245 264 260 270 279 277 266 262 243
345 355 4 353 334 327 324 313 285 269 297 18 348 343 327 293 267 233 260 259 213 277 245 244 243 253 251 255 232 239 238 231 238 234 244 242 242 259 265 268 269 271 271 277 243
348 1 354 339 329 333 333 325 290 325 338 353 347 330 315 323 291 285 261 273 279 232 246 271 274 224 239 245 242 218 233 224 219 221 240 243 250 257 249 255 254 294 219 261 121
341 322 323 326 342 333 331 333 258 290 352 339 342 349 334 317 341 320 276 267 276 336 242 307 276 277 276 240 242 244 220 236 248 234 249 246 232 239 247 244 242 210 198 162 124
340 315 272 314 327 326 310 297 270 331 329 334 339 324 309 318 307 309 329 338 293 166 352 303 289 280 289 223 241 240 232 222 228 232 242 232 247 271 195 219 221 200 186 141 134
326 249 232 354 320 307 295 300 318 319 334 324 326 310 324 322 315 313 232 235 267 293 273 266 256 272 283 266 215 230 235 220 242 227 235 248 260 269 158 168 182 166 172 147 148
301 293 159 10 314 279 308 322 308 309 334 328 331 312 323 306 305 308 298 22 353 325 299 301 289 270 261 273 269 232 230 232 219 220 230 248 247 90 88 165 189 185 164 149 154
304 323 291 338 326 328 317 327 319 336 336 325 321 313 331 328 312 297 9 314 308 326 319 354 250 266 259 273 262 247 225 235 240 237 215 235 249 141 142 189 177 148 147 143 154
301 336 325 323 320 320 313 318 321 320 322 332 321 311 335 288 288 281 334 261 253 280 294 318 270 269 271 268 343 303 271 225 228 215 222 226 193 142 172 166 99 131 135 149 154
327 285 343 298 313 314 298 294 314 331 336 332 318 326 328 327 316 327 315 311 345 327 255 163 275 287 281 250 269 290 282 248 220 202 222 233 213 167 181 124 121 125 143 151 155
337 336 327 302 305 297 321 322 316 327 327 317 324 324 319 308 310 312 312 306 302 249 137 239 273 283 282 250 244 293 285 277 221 198 213 234 209 116 78 109 124 149 146 156 156
336 319 296 294 297 326 295 324 314 318 309 311 319 322 316 323 313 296 285 278 279 279 272 255 281 299 251 185 293 271 243 250 220 203 210 216 150 120 138 152 123 155 157 161 161